HORIZONS-2 (32388 NORAD) Tracking and Keplerian Element Data

This shows tracking and keplerian element data for the satellite.

Feedback or suggestion? Click here.




ElementValue
Catalog32388
NameHORIZONS-2
Epoch Orbit6281
Epoch Day34.61843931
Epoch Year2025
RAAN86.9448
Inclination1.3114
Eccentricity0.0002117
Argument of Perigee237.9404
Mean Anonmoly317.9722
Mean Motion1.00271317
Decay Rate-2.49E-06
L11 32388U 07063B 25034.61843931 -.00000249 00000+0 00000+0 0 9993
L22 32388 1.3114 86.9448 0002117 237.9404 317.9722 1.00271317 62815



Live tracking and technical data element details for HORIZONS-2 (NORAD 32388). HORIZONS-2 can be tracked NOW for your location showing map with azimuth and elevation plus other details from your city location.







IsCatalogInMostPopularTable: catalog: 32388, numindb: 549
Update: records affected: 1



GetName: 32388 HORIZONS-2

Hit Count: updated at: Sat, 06 Dec 2025 19:12:05 GMT